This demonstration page uses our WeatherBlox Daily Observations layout. Learn more.

Hourly Observations for August 27, 2016

Temp ( °F °C ) Dew Point ( °F °C ) Humidity (%) Winds ( mph kmh ) Pressure ( in mb ) Visibility ( mi km ) Precip ( " mm )
12:15 am 00:15 Partly Cloudy 62 16.8 60 15.5 92 92 NW 7 11 29.97 1015 10 16.09344 0 0
12:35 am 00:35 Clear 61 15.9 58 14.2 90 90 SW 3 6 30 1016 10 16.09344 0 0
12:55 am 00:55 Clear 59 15.1 57 14 93 93 Calm 30 1016 10 16.09344 0 0
1:15 am 01:15 Clear 59 15.1 57 14 93 93 Calm 30 1016 10 16.09344 0 0
1:35 am 01:35 Clear 58 14.5 56 13.5 94 94 Calm 30 1016 10 16.09344 0 0
1:55 am 01:55 Clear 58 14.5 56 13.5 94 94 NW 3 6 30 1016 10 16.09344 0 0
2:15 am 02:15 Clear 57 13.7 55 12.8 94 94 Calm 30 1016 10 16.09344 0 0
2:35 am 02:35 Clear 57 13.7 55 12.9 95 95 W 5 7 30.03 1017 10 16.09344 0 0
2:55 am 02:55 Clear 58 14.3 56 13.5 95 95 WNW 5 7 30.03 1017 10 16.09344 0 0
3:15 am 03:15 Clear 57 14.1 56 13.2 94 94 WNW 3 6 30.03 1017 10 16.09344 0 0
3:35 am 03:35 Clear 56 13.6 55 12.9 96 96 WNW 6 9 30.03 1017 10 16.09344 0 0
3:55 am 03:55 Clear 56 13.6 55 12.8 95 95 WNW 3 6 30 1016 10 16.09344 0 0
4:15 am 04:15 Clear 55 13 54 12.2 95 95 Calm 30 1016 10 16.09344 0 0
4:35 am 04:35 Clear 55 12.7 54 12 96 96 Calm 30.03 1017 10 16.09344 0 0
4:55 am 04:55 Clear 54 12.4 53 11.7 96 96 WNW 5 7 30.03 1017 7 11.265408 0 0
5:15 am 05:15 Clear 54 12.2 53 11.5 96 96 Calm 30.03 1017 10 16.09344 0 0
5:35 am 05:35 Clear 55 12.5 53 11.7 95 95 Calm 30.03 1017 10 16.09344 0 0
5:55 am 05:55 Clear 53 11.8 52 11.1 96 96 Calm 30.06 1018 7 11.265408 0 0
6:15 am 06:15 Clear 53 11.9 52 11.3 96 96 N 3 6 30.06 1018 7 11.265408 0 0
6:35 am 06:35 Clear 53 11.9 52 11.3 96 96 Calm 30.06 1018 10 16.09344 0 0
6:55 am 06:55 Clear 53 11.4 51 10.6 95 95 Calm 30.06 1018 7 11.265408 0 0
7:15 am 07:15 Sunny with Mist and Fog 53 11.9 53 11.4 97 97 Calm 30.06 1018 5 8.04672 0 0
7:35 am 07:35 Sunny 55 12.5 53 11.9 96 96 Calm 30.06 1018 7 11.265408 0 0
7:55 am 07:55 Sunny 56 13.5 55 12.8 96 96 Calm 30.03 1017 7 11.265408 0 0
8:15 am 08:15 Sunny 57 14 56 13.3 96 96 Calm 30.03 1017 10 16.09344 0 0
8:35 am 08:35 Sunny 59 15 57 14 94 94 Calm 30.03 1017 10 16.09344 0 0
8:55 am 08:55 Sunny 61 16 58 14.5 91 91 Calm 30.06 1018 10 16.09344 0 0
9:15 am 09:15 Sunny 63 17 59 15 88 88 Calm 30.03 1017 10 16.09344 0 0
9:35 am 09:35 Sunny 64 17.8 59 14.8 83 83 Calm 30 1016 10 16.09344 0 0
9:55 am 09:55 Sunny 65 18.6 59 15 80 80 NW 3 6 30 1016 10 16.09344 0 0
10:15 am 10:15 Sunny 67 19.3 59 15.2 77 77 N 5 7 30 1016 10 16.09344 0.01 0.254
10:35 am 10:35 Sunny 67 19.5 59 15.1 76 76 NNW 3 6 30 1016 10 16.09344 0.01 0.254
10:55 am 10:55 Sunny 69 20.4 58 14.3 68 68 Calm 29.97 1015 10 16.09344 0.01 0.254
11:15 am 11:15 Sunny 70 21.1 59 14.9 68 68 SE 3 6 29.97 1015 10 16.09344 0 0
11:35 am 11:35 Sunny 72 22.1 59 14.9 64 64 E 3 6 29.97 1015 10 16.09344 0 0
11:55 am 11:55 Sunny 73 22.9 59 15.2 62 62 SSE 5 7 29.97 1015 10 16.09344 0 0
12:15 pm 12:15 Sunny 73 23 59 14.8 60 60 ESE 5 7 29.97 1015 10 16.09344 0 0
12:35 pm 12:35 Sunny 75 23.9 57 14.1 54 54 SE 6 9 29.94 1014 10 16.09344 0 0
12:55 pm 12:55 Sunny 77 24.8 57 14 51 51 S 7 11 29.91 1013 10 16.09344 0 0
1:15 pm 13:15 Sunny 77 25.1 57 14 50 50 SSE 12 19 29.91 1013 10 16.09344 0 0
1:35 pm 13:35 Sunny 77 25.2 58 14.6 52 52 SSE 13 20 29.91 1013 10 16.09344 0 0
1:55 pm 13:55 Sunny 79 26 58 14.3 49 49 S 10 17 29.91 1013 10 16.09344 0 0
2:15 pm 14:15 Sunny 80 26.6 58 14.3 47 47 SSW 12 19 29.91 1013 10 16.09344 0 0
2:35 pm 14:35 Sunny 80 26.4 58 14.3 47 47 SSE 14 22 29.91 1013 10 16.09344 0 0
2:55 pm 14:55 Sunny 80 26.6 57 14.1 46 46 SSE 9 15 29.91 1013 10 16.09344 0 0
3:15 pm 15:15 Sunny 82 27.5 59 14.9 46 46 SSE 14 22 29.88 1012 10 16.09344 0 0
3:35 pm 15:35 Sunny 81 27.2 60 15.3 48 48 SSE 14 22 29.85 1011 10 16.09344 0 0
3:55 pm 15:55 Sunny 82 27.6 60 15.6 48 48 SE 10 17 29.85 1011 10 16.09344 0 0
4:15 pm 16:15 Sunny 82 27.7 61 16.2 50 50 SSE 15 24 29.85 1011 10 16.09344 0 0
4:35 pm 16:35 Sunny 81 27.4 60 15.8 49 49 S 10 17 29.85 1011 10 16.09344 0 0
4:55 pm 16:55 Sunny 82 27.8 61 16 49 49 SSE 12 19 29.85 1011 10 16.09344 0 0
5:15 pm 17:15 Sunny 82 28 61 16.1 48 48 SSE 13 20 29.85 1011 10 16.09344 0 0
5:35 pm 17:35 Sunny 81 27.2 60 15.7 49 49 SSE 9 15 29.85 1011 10 16.09344 0 0
5:55 pm 17:55 Sunny 81 27 62 16.4 52 52 SSE 10 17 29.85 1011 10 16.09344 0 0
6:15 pm 18:15 Sunny 80 26.9 61 16.3 52 52 S 10 17 29.85 1011 10 16.09344 0 0
6:35 pm 18:35 Sunny 80 26.5 63 17 56 56 S 7 11 29.88 1012 10 16.09344 0 0
6:55 pm 18:55 Sunny 79 26 63 17.2 58 58 SSE 9 15 29.88 1012 10 16.09344 0 0
7:15 pm 19:15 Sunny 77 25 64 17.7 64 64 SSE 8 13 29.88 1012 10 16.09344 0 0
7:35 pm 19:35 Sunny 76 24.5 64 17.7 66 66 SSE 6 9 29.88 1012 10 16.09344 0 0
7:55 pm 19:55 Sunny 74 23.5 64 18 71 71 SSE 6 9 29.88 1012 10 16.09344 0 0
8:15 pm 20:15 Sunny 73 22.8 64 17.9 74 74 SE 6 9 29.91 1013 10 16.09344 0 0
8:35 pm 20:35 Clear 71 21.7 65 18.1 80 80 SSE 6 9 29.91 1013 10 16.09344 0 0
8:55 pm 20:55 Clear 71 21.4 64 18 81 81 SE 6 9 29.94 1014 10 16.09344 0 0
9:15 pm 21:15 Clear 69 20.7 64 17.9 84 84 ESE 6 9 29.94 1014 10 16.09344 0 0
9:35 pm 21:35 Clear 69 20.4 65 18.1 87 87 ESE 6 9 29.94 1014 10 16.09344 0 0
9:55 pm 21:55 Clear 69 20.8 65 18.3 86 86 SE 7 11 29.94 1014 10 16.09344 0 0
10:15 pm 22:15 Clear 69 20.5 64 18 86 86 SE 6 9 29.97 1015 10 16.09344 0 0
10:35 pm 22:35 Clear 68 20 64 18 88 88 SE 7 11 30 1016 10 16.09344 0 0
10:55 pm 22:55 Clear 68 20.2 64 18 87 87 SE 7 11 29.97 1015 10 16.09344 0 0
11:15 pm 23:15 Clear 69 20.4 65 18.1 87 87 SE 7 11 29.97 1015 10 16.09344 0 0
11:35 pm 23:35 Clear 69 20.5 65 18.1 86 86 SE 8 13 29.97 1015 10 16.09344 0 0
11:55 pm 23:55 Clear 69 20.5 64 18 86 86 SE 7 11 29.97 1015 10 16.09344 0 0

Powered by AerisWeather